Location: Bou Ouachlou
(32.7770°N, 5.6009°W)
Time: 04:28:11
(UTC+00:00)

Centaur D-1A AC-31 - Pass Details

Date: 07 June 2020
Orbit: 630 x 36311 km, 27.3° (Epoch: 07 July)

Event Time Altitude Azimuth Distance (km) Brightness Sun altitude
Rises 19:17:47 0° 223° (SW) 20,039 8.9 1.2°
Reaches altitude 10° 19:49:52 10° 220° (SW) 24,894 9.3 -4.8°
Drops below altitude 10° 00:36:12 10° 253° (WSW) 40,035 10.0 -34.3°
Maximum altitude 04:48:22 54° 207° (SSW) 2,174 3.5 -5.5°
Sets 04:55:36 0° 123° (ESE) 3,323 5.2 -4.2°
